FW7447 Weather Reports


time (UTC)temp
C
wind
direction
speed
KPH
gust
KPH
rain 1hr
cm
rain 24hr
cm
rain mn
cm
humidity
%
barometer
mb
20260505063043 13 200 1.6 4.8 0.00 0.00 0.00 64 1014.9
20260505061540 13 182 1.6 9.7 0.00 0.00 0.00 63 1015.0
20260505060039 13 198 3.2 11.3 0.00 0.00 0.00 63 1015.0
20260505054550 14 0 3.2 8.0 0.00 0.00 0.00 62 1015.0
20260505053045 14 179 3.2 14.5 0.00 0.00 0.00 62 1014.9
20260505051543 13 219 1.6 8.0 0.00 0.00 0.00 62 1015.0
20260505041544 15 0 0.0 4.8 0.00 0.00 0.00 59 1015.0
20260505040053 15 209 0.0 4.8 0.00 0.00 0.00 57 1015.0
20260505034601 15 0 0.0 6.4 0.00 0.00 0.00 57 1015.3
20260505033042 16 208 1.6 4.8 0.00 0.00 0.00 56 1015.4
20260505031546 16 0 0.0 4.8 0.00 0.00 0.00 54 1015.3
20260505030049 16 209 0.0 4.8 0.00 0.00 0.00 53 1015.4
20260505024541 16 209 1.6 6.4 0.00 0.00 0.00 52 1015.4
20260505023044 17 0 1.6 8.0 0.00 0.00 0.00 52 1015.4
20260505021547 17 202 3.2 8.0 0.00 0.00 0.00 51 1015.2
20260505020052 17 197 1.6 11.3 0.00 0.00 0.00 50 1015.1
20260505014547 18 213 3.2 11.3 0.00 0.00 0.00 49 1014.7
20260505013042 18 200 3.2 11.3 0.00 0.00 0.00 48 1014.6
20260505011545 18 196 4.8 14.5 0.00 0.00 0.00 47 1014.4
20260505010054 19 199 1.6 6.4 0.00 0.00 0.00 45 1014.3
20260505004601 20 173 1.6 12.9 0.00 0.00 0.00 43 1014.0
20260505003050 20 171 4.8 11.3 0.00 0.00 0.00 42 1013.8
20260505001545 20 175 3.2 12.9 0.00 0.00 0.00 41 1013.9
20260505000045 21 0 0.0 8.0 0.00 0.00 0.00 41 1013.8
20260504234541 21 175 1.6 8.0 0.00 0.00 0.00 39 1013.7
20260504233040 22 150 3.2 14.5 0.00 0.00 0.00 38 1013.5
20260504231615 22 189 4.8 11.3 0.00 0.00 0.00 36 1013.6
20260504230046 23 217 4.8 12.9 0.00 0.00 0.00 34 1013.5
20260504224545 23 178 3.2 16.1 0.00 0.00 0.00 33 1013.6
20260504223046 23 168 8.0 24.1 0.00 0.00 0.00 33 1013.7
20260504221556 24 232 3.2 24.1 0.00 0.00 0.00 34 1013.5
20260504220039 24 200 6.4 17.7 0.00 0.00 0.00 33 1013.4
20260504214544 24 151 9.7 27.4 0.00 0.00 0.00 33 1013.5
20260504213045 25 108 4.8 25.7 0.00 0.00 0.00 34 1013.5
20260504211540 25 134 6.4 19.3 0.00 0.00 0.00 33 1013.5
20260504210046 25 141 8.0 27.4 0.00 0.00 0.00 32 1013.4
20260504204546 25 219 4.8 16.1 0.00 0.00 0.00 32 1013.6
20260504203047 25 136 6.4 24.1 0.00 0.00 0.00 31 1013.8
20260504201545 25 162 9.7 29.0 0.00 0.00 0.00 31 1014.0
20260504200041 25 143 8.0 17.7 0.00 0.00 0.00 31 1014.2
20260504194549 25 238 8.0 16.1 0.00 0.00 0.00 31 1014.4
20260504193045 25 161 4.8 19.3 0.00 0.00 0.00 30 1014.6
20260504191608 25 182 4.8 16.1 0.00 0.00 0.00 30 1014.7
20260504190045 25 169 4.8 19.3 0.00 0.00 0.00 32 1015.0
20260504184555 25 200 4.8 19.3 0.00 0.00 0.00 32 1015.2
20260504183043 24 259 6.4 16.1 0.00 0.00 0.00 32 1015.3
20260504181541 24 142 6.4 20.9 0.00 0.00 0.00 32 1015.5
20260504180038 24 188 8.0 17.7 0.00 0.00 0.00 33 1015.7
20260504174546 23 221 3.2 14.5 0.00 0.00 0.00 36 1015.7
20260504173044 23 260 6.4 16.1 0.00 0.00 0.00 39 1015.9
20260504171545 23 190 4.8 12.9 0.00 0.00 0.00 37 1015.9
20260504081540 6 0 0.0 0.0 0.00 0.00 0.00 82 1016.9